GEFSGL_500_meanwind_042.txt.gz
Wind_Speed
41 43 44 46 48 48 48 47 46 45 44 44 42 40 38 35 33 31 30 29 29 29 30 30 29 30 30 31 31 30 30 31 31 32 33 33 34 34 33 32 32 32 32
37 38 38 39 40 41 41 42 42 42 42 42 39 37 35 34 33 30 29 29 29 30 30 30 30 31 32 32 32 33 33 33 33 34 35 35 35 35 35 34 33 33 33
33 33 34 34 35 35 37 38 39 38 37 36 36 34 31 31 30 30 30 29 29 30 30 30 31 32 32 33 34 34 35 36 36 36 36 37 37 37 36 35 34 33 33
28 28 27 27 27 28 31 33 34 35 35 34 32 30 30 30 29 29 28 28 29 29 29 30 31 32 33 34 35 36 37 38 38 39 39 38 38 38 38 37 36 35 34
25 24 24 23 22 23 24 26 27 28 29 29 28 28 28 27 27 26 26 26 27 27 28 30 31 32 33 34 35 36 37 38 39 40 40 40 40 40 40 39 38 37 36
23 22 23 22 20 19 19 20 20 21 22 23 24 24 23 23 23 23 24 25 26 27 28 29 30 32 32 33 34 35 36 37 38 39 40 40 40 41 41 40 39 38 38
21 20 21 20 17 15 15 15 16 17 19 19 19 19 18 18 18 19 21 22 23 24 26 27 29 29 31 32 33 34 35 36 37 39 39 40 40 40 40 40 40 39 39
18 18 18 17 16 14 14 14 14 13 13 13 14 15 16 16 17 18 19 20 22 23 24 25 26 27 28 30 31 32 34 36 37 38 39 40 40 40 40 39 39 39 39
17 16 15 14 14 14 12 11 10 11 11 11 12 13 14 14 15 16 17 17 18 19 20 21 23 25 27 28 30 32 33 35 36 37 38 39 39 39 39 39 38 38 38
15 14 13 12 12 12 11 10 9 9 10 10 11 11 12 12 13 13 13 14 15 16 18 20 22 24 26 28 29 31 33 34 35 35 36 36 36 36 36 36 36 36 36
14 13 12 11 10 10 10 10 9 9 9 9 10 10 11 10 10 10 11 12 13 15 17 19 21 23 24 26 28 29 30 31 32 32 32 32 33 33 33 33 33 34 34
13 12 11 10 10 10 9 9 9 9 9 9 9 9 9 9 9 9 10 10 12 14 16 18 20 22 23 25 26 28 28 29 29 29 29 29 29 29 30 31 31 31 32
13 12 12 11 11 10 9 9 9 9 9 9 9 8 8 8 8 8 9 10 11 13 15 17 19 21 22 24 26 27 27 26 26 26 26 26 26 26 26 27 28 28 29
15 13 13 12 12 12 12 11 11 11 10 10 10 9 9 9 9 9 9 10 12 13 15 16 18 20 22 24 26 26 25 25 24 24 24 24 24 24 24 24 25 25 26
17 16 14 13 13 12 12 12 12 12 11 11 11 10 10 10 10 10 11 11 12 13 14 15 17 20 22 24 25 26 26 25 25 24 24 24 23 23 23 23 23 23 24
19 18 17 15 15 14 14 13 13 12 12 12 12 12 12 12 12 12 12 12 12 12 14 15 17 20 22 24 25 25 25 25 25 25 24 23 23 22 22 21 21 21 22
21 20 19 18 17 17 16 16 15 14 14 13 13 13 13 13 13 13 13 12 12 13 14 15 17 19 21 23 24 25 26 26 26 25 24 23 22 22 22 21 20 20 21
23 22 22 21 20 19 19 18 18 17 16 16 16 15 15 15 15 15 14 14 14 14 14 15 16 18 20 22 23 25 26 27 27 27 26 24 23 22 22 21 20 19 19
24 24 23 23 22 22 21 21 20 20 19 18 18 17 17 17 16 16 16 15 15 15 15 16 17 18 20 22 24 25 26 28 28 28 28 26 25 24 22 21 20 19 19
25 24 24 24 24 23 23 23 23 23 22 21 21 20 19 19 18 18 17 17 17 16 17 17 18 19 20 22 24 26 27 29 29 29 29 28 26 25 23 22 21 19 19
26 26 25 24 24 25 25 25 25 25 25 24 24 23 22 21 20 20 19 19 18 18 18 19 20 20 21 23 25 26 28 29 31 31 31 30 28 26 24 23 22 20 19
28 27 26 25 24 24 24 25 26 26 26 26 26 25 24 23 22 22 21 21 20 19 19 20 21 22 23 24 26 27 29 30 31 32 32 32 30 27 26 24 22 21 20
27 26 25 24 23 23 23 24 25 25 26 27 27 26 25 24 24 23 23 22 21 21 21 21 22 23 24 25 26 28 29 31 32 33 33 33 31 29 27 25 24 22 21
27 26 25 24 23 22 22 22 24 25 26 27 27 27 26 26 25 24 24 23 22 22 22 23 23 24 25 25 27 28 30 31 33 33 34 34 33 31 29 27 25 23 22
27 26 25 24 24 22 22 22 22 23 24 26 27 27 27 27 26 26 25 24 23 23 23 23 24 24 25 26 27 28 30 31 33 34 35 35 34 32 30 28 26 24 23
29 27 26 25 24 23 22 22 22 22 23 24 25 26 27 27 27 26 26 25 24 23 23 23 24 25 26 27 28 29 30 32 34 35 36 35 34 33 31 29 27 25 24

GEFSGL_500_meanwind_048.txt.gz
Wind_Speed
39 40 40 41 42 43 44 46 45 44 44 45 46 48 49 48 46 45 44 42 39 36 34 33 32 29 27 26 25 24 25 25 26 27 28 28 28 29 30 30 31 31 32
38 39 39 39 40 41 41 41 40 39 39 40 40 41 42 41 40 40 40 39 37 36 33 31 30 28 26 25 25 25 25 26 27 28 29 29 30 31 33 34 34 34 35
37 37 37 37 37 37 36 35 34 34 34 34 35 34 34 35 35 35 34 35 35 34 31 30 29 28 26 25 25 25 25 26 27 28 29 31 32 33 34 35 36 37 38
36 36 35 34 33 32 31 30 29 29 28 28 27 27 27 29 30 30 30 31 32 32 32 30 28 27 25 23 24 24 25 25 26 28 29 31 33 34 36 37 38 39 40
34 34 33 32 30 29 27 25 25 24 23 22 21 21 23 24 24 25 25 26 27 28 28 27 24 22 21 21 22 22 23 24 26 28 30 32 34 35 37 38 40 40 41
31 31 30 29 27 25 24 23 22 20 19 19 18 17 19 20 20 21 22 22 23 22 21 21 19 19 19 19 20 21 22 24 26 28 30 32 34 36 37 39 40 41 42
30 29 28 27 25 22 21 20 18 17 16 15 14 14 15 16 17 17 18 17 16 16 15 15 14 15 15 17 18 19 21 23 25 27 30 32 34 35 37 38 40 41 42
29 27 26 25 23 21 19 17 15 14 13 12 11 10 11 12 12 13 12 12 12 12 12 12 12 12 13 14 16 18 20 22 24 26 28 31 33 34 36 37 37 38 39
29 26 24 23 22 20 17 15 13 13 12 12 11 9 9 9 9 9 9 10 10 10 10 10 10 11 11 12 14 16 18 20 23 25 28 30 31 33 34 35 35 36 36
28 26 23 22 20 18 16 14 13 12 11 10 9 8 8 7 7 8 9 9 8 8 8 8 8 9 9 10 12 15 17 19 22 24 26 28 30 31 32 32 32 33 33
27 25 23 21 19 17 15 14 13 12 11 10 8 8 7 7 6 7 7 7 7 7 7 7 7 7 8 10 12 14 17 19 21 23 26 28 29 30 30 29 29 29 29
27 25 23 21 19 17 16 15 14 12 11 10 8 7 7 7 7 7 7 7 7 7 6 6 6 7 9 10 12 14 17 19 21 24 26 28 29 29 29 28 27 27 27
27 25 23 21 19 18 16 15 14 12 11 10 9 8 7 7 7 7 7 6 6 6 6 6 6 7 9 10 12 15 17 20 22 25 27 28 29 29 28 27 26 25 25
28 26 24 22 21 19 17 16 15 14 13 12 10 9 8 7 8 7 7 7 7 7 7 7 7 8 9 11 13 15 17 20 22 25 27 28 29 29 28 27 25 25 24
28 27 25 23 22 20 19 17 16 15 13 12 11 10 10 10 9 9 8 9 9 9 8 8 9 10 11 12 13 15 17 20 22 25 27 28 30 30 29 27 25 24 23
28 27 26 25 23 21 20 19 17 16 15 13 13 12 11 11 11 10 10 11 11 10 10 10 10 11 12 13 14 16 18 20 23 25 27 28 30 30 29 27 25 24 23
29 28 27 26 25 23 21 20 19 18 17 15 14 14 13 13 12 12 12 13 12 12 12 12 12 13 13 14 15 16 18 20 23 25 27 28 29 30 29 28 26 25 23
30 29 28 26 26 25 23 21 20 19 18 17 16 16 15 15 15 14 15 14 14 14 14 14 14 14 15 15 16 17 19 21 23 25 26 28 29 30 30 28 26 25 23
31 29 28 27 26 26 24 23 22 21 19 18 17 17 16 16 16 16 16 16 16 16 16 16 16 16 16 17 17 18 20 21 23 25 27 28 29 30 30 29 27 25 24
31 31 29 28 26 26 25 24 23 22 21 20 19 19 18 18 18 18 18 18 18 18 18 17 17 17 18 18 19 20 21 22 24 25 27 28 29 30 30 29 28 27 25
32 31 30 29 27 26 25 24 23 23 22 21 21 20 20 20 19 19 19 20 20 20 20 20 20 19 19 20 21 21 22 23 24 26 27 28 30 31 31 30 29 28 27
32 31 30 29 27 25 24 24 24 23 23 23 22 22 22 22 21 21 21 21 22 22 21 21 21 21 21 21 22 22 23 24 25 27 28 29 30 31 31 31 30 29 28
33 31 31 29 28 26 25 24 23 22 22 21 21 21 21 22 22 22 22 22 23 23 23 22 22 23 22 22 22 23 24 25 26 27 28 29 30 31 31 31 31 30 30
35 33 32 31 28 26 25 24 23 22 21 20 19 18 19 21 22 22 22 22 23 23 23 23 23 23 23 24 23 23 24 26 27 27 28 30 31 32 32 32 32 31 31
36 33 32 30 27 25 24 22 21 20 19 18 17 16 16 18 20 21 22 22 22 22 22 23 23 23 24 24 24 24 25 26 27 28 29 30 31 32 33 33 32 32 32
35 33 32 29 26 24 22 20 19 18 17 16 16 15 15 15 16 18 20 21 22 21 21 21 22 22 23 23 23 24 25 26 28 29 30 31 31 32 33 33 33 33 33

GEFSGL_500_meanwind_054.txt.gz
Wind_Speed
37 37 37 37 38 38 39 39 40 40 41 41 41 41 41 40 40 40 39 39 39 38 38 37 37 36 34 35 36 35 35 34 34 32 31 30 29 28 29 29 29 29 30
38 37 37 36 36 36 36 37 38 38 38 38 38 38 38 37 36 35 35 34 34 34 34 33 32 31 32 33 33 32 32 32 32 30 29 29 28 28 28 28 28 29 30
38 37 36 35 35 35 35 35 35 36 35 35 34 33 32 31 30 29 29 29 28 28 28 29 29 28 29 29 29 29 29 28 28 27 27 27 27 27 27 28 28 29 30
38 37 37 35 35 34 34 34 33 32 32 31 29 28 26 25 25 24 23 24 24 23 24 27 27 27 27 26 27 27 26 25 24 24 24 24 24 25 26 27 28 29 31
38 37 36 35 34 33 33 32 31 29 28 26 24 22 21 20 18 19 19 19 18 20 21 23 24 24 24 25 25 26 26 24 23 23 22 22 22 23 25 26 27 29 31
38 37 36 35 34 32 31 30 28 27 25 23 22 20 18 17 15 15 15 17 17 17 19 20 21 22 23 24 25 25 24 22 21 20 20 20 21 23 24 25 27 29 31
39 37 36 35 33 32 31 29 27 24 23 22 20 18 16 13 12 11 12 13 14 15 17 17 17 18 19 20 20 20 19 17 17 16 17 18 19 21 22 24 26 28 30
39 37 35 35 33 31 29 27 25 22 21 19 17 15 13 11 11 11 10 11 12 13 14 16 15 15 15 16 16 14 13 13 13 13 14 15 17 19 20 22 24 27 29
39 37 35 34 32 30 28 26 23 20 18 17 15 13 11 10 9 9 10 10 10 11 11 12 11 11 11 11 11 10 10 10 10 10 11 12 14 16 18 21 24 26 29
40 37 36 34 32 31 28 25 22 19 18 16 14 12 10 8 8 9 9 9 10 10 10 10 10 9 9 9 9 8 7 7 7 8 9 10 12 15 18 20 23 26 28
41 39 37 35 32 30 27 24 21 19 17 15 13 11 9 7 7 8 8 8 9 9 9 9 9 8 8 7 7 6 5 5 6 6 7 10 12 15 18 20 23 25 26
43 41 38 35 32 29 26 24 21 20 17 15 13 11 9 8 7 7 8 8 9 10 10 9 8 8 7 7 6 5 5 5 5 6 8 11 13 16 19 21 24 25 26
45 42 39 36 32 29 26 24 22 20 18 16 14 12 10 9 9 9 9 9 9 9 9 9 9 8 7 6 6 5 5 5 6 8 10 12 14 17 20 22 24 25 26
46 44 41 38 34 30 28 25 23 22 20 17 16 14 12 11 10 10 10 10 10 9 10 10 9 8 7 7 6 6 6 6 7 9 11 13 15 18 20 23 25 26 27
46 44 40 37 34 31 29 27 25 23 22 20 18 16 14 13 12 12 12 11 11 11 10 10 9 9 8 8 7 7 7 7 9 10 12 14 16 18 21 23 25 27 28
46 44 40 37 35 33 30 27 26 25 24 22 20 18 17 15 14 14 13 13 12 12 11 11 11 10 9 9 9 8 9 9 11 12 13 15 17 19 22 24 26 28 29
42 42 39 36 35 34 32 29 28 27 26 24 22 20 19 17 16 16 15 14 13 13 12 12 12 11 11 11 10 10 11 11 13 14 15 16 18 20 22 24 26 28 29
38 39 38 35 36 35 33 31 30 29 27 25 24 22 21 19 18 18 17 16 15 14 14 13 13 13 13 13 12 12 13 14 14 15 16 17 19 20 22 24 26 28 29
34 36 37 35 35 35 33 32 31 30 28 27 26 24 22 21 20 19 18 17 16 15 15 14 14 14 14 15 14 14 15 16 16 16 17 19 20 21 22 24 26 28 28
31 34 35 35 36 35 33 32 32 30 29 28 26 25 23 22 20 20 19 18 17 17 16 16 15 16 16 16 16 17 17 18 18 18 19 20 21 21 22 24 26 27 28
28 31 33 34 35 34 33 31 31 30 29 28 28 26 25 23 22 20 19 18 18 18 17 17 17 17 18 18 18 19 19 19 19 19 20 21 21 22 22 24 26 27 28
28 30 33 35 35 34 32 31 30 30 29 29 28 26 25 23 22 21 20 19 19 18 18 19 19 19 19 20 20 21 21 21 21 21 21 21 22 23 23 25 26 27 28
27 30 33 34 35 34 32 30 29 29 29 28 27 26 24 23 22 21 21 21 20 20 19 20 20 20 21 22 22 22 23 22 22 22 22 22 22 23 24 25 26 27 28
28 30 33 34 34 33 32 30 29 28 28 27 25 24 23 23 22 21 21 21 20 20 20 20 21 21 22 23 23 23 23 23 23 22 22 22 23 24 25 26 27 28 29
28 30 32 34 33 32 31 30 29 28 27 26 24 23 21 20 19 19 19 19 19 19 20 20 21 22 22 22 23 23 23 23 23 22 22 23 23 24 25 26 27 28 30
29 30 31 34 32 31 30 29 28 28 26 25 23 21 20 19 17 17 16 16 17 18 18 19 20 20 21 21 22 22 22 23 23 23 23 23 24 25 26 27 29 30 32

GEFSGL_500_meanwind_060.txt.gz
Wind_Speed
38 38 39 39 38 38 38 38 37 37 36 36 36 36 36 36 36 36 37 38 38 38 38 38 37 36 36 36 36 35 34 35 35 34 34 34 34 34 35 35 35 35 36
42 42 42 42 41 41 40 40 39 37 37 37 37 36 35 35 35 35 34 35 35 36 35 35 35 35 34 34 34 33 33 33 33 34 34 34 33 33 33 34 35 37 37
46 45 45 44 43 43 42 41 40 38 37 37 36 35 34 33 33 33 32 31 31 31 30 31 31 31 32 32 32 32 32 32 33 33 34 34 34 33 33 33 34 36 36
50 49 47 46 45 44 43 42 41 39 38 37 36 35 33 32 31 29 28 27 26 26 26 26 27 27 28 29 29 29 29 29 30 31 32 32 32 32 32 31 31 32 31
54 52 50 49 48 46 45 43 42 40 38 36 35 34 32 31 29 28 26 24 23 23 22 23 23 23 23 24 24 23 25 27 27 27 28 29 29 30 29 29 28 28 26
57 55 54 53 50 48 46 44 42 40 38 36 35 33 31 29 27 26 24 22 20 19 18 17 18 20 20 20 21 21 22 23 25 26 27 27 26 26 25 25 24 24 23
61 59 57 55 53 50 48 45 42 40 38 35 34 31 29 27 26 24 21 20 18 17 15 15 16 17 18 18 19 19 20 20 22 24 24 23 22 20 19 18 18 18 20
64 62 60 57 54 51 49 45 42 40 38 35 32 29 28 26 23 20 19 18 16 15 15 14 14 15 15 16 16 17 19 19 20 21 20 19 17 15 14 14 15 16 18
65 62 59 56 53 49 47 44 41 39 37 35 31 28 25 23 21 19 17 16 15 14 14 13 14 14 15 16 17 17 19 18 16 16 15 14 13 11 10 11 11 12 13
60 57 55 52 49 46 44 42 40 38 37 35 32 28 25 22 20 18 16 14 14 13 13 14 14 15 16 17 16 17 18 16 14 13 12 11 10 8 8 8 9 10 12
55 53 51 48 46 44 42 41 40 38 36 35 32 28 24 21 18 16 15 13 12 12 12 13 13 14 14 14 14 14 13 13 12 11 10 9 8 7 7 7 8 9 11
50 48 46 45 43 42 41 41 40 40 36 35 32 27 25 22 18 16 15 13 12 12 12 12 13 13 13 13 13 13 12 12 12 11 10 9 7 7 6 6 7 9 11
43 42 41 41 40 40 41 41 40 39 38 35 31 28 25 22 19 17 15 14 13 13 13 13 13 14 14 14 13 13 13 12 11 10 9 8 7 6 6 6 8 10 12
39 39 38 38 38 38 39 40 41 39 37 35 32 29 25 23 20 18 16 15 14 13 14 15 14 14 14 14 13 13 12 11 10 9 8 7 6 6 6 7 9 11 13
38 36 36 35 35 35 37 38 39 40 37 34 33 30 27 24 22 19 17 16 15 15 16 16 16 15 14 14 14 13 11 10 9 8 7 7 7 7 7 9 11 13 14
36 35 34 31 31 32 34 37 38 38 38 34 34 31 28 26 24 21 19 18 17 17 17 17 16 16 15 14 13 12 11 10 9 8 8 8 8 8 9 10 12 14 15
33 32 31 29 28 28 31 34 37 36 37 35 33 31 29 27 25 23 21 19 19 18 18 18 17 16 15 14 13 12 11 11 10 9 9 9 9 10 11 12 14 15 17
32 29 27 24 23 23 25 31 35 35 37 35 33 32 30 28 27 25 22 21 20 19 19 19 18 17 16 14 13 13 12 12 11 11 11 11 11 12 13 14 15 17 18
30 26 23 20 18 19 24 29 33 36 37 36 35 33 31 29 27 26 24 22 22 21 20 19 18 17 16 15 14 13 13 13 12 12 12 12 13 14 14 16 17 18 19
26 21 17 15 16 19 25 29 34 36 36 35 34 33 31 28 26 24 24 23 22 21 21 19 18 17 16 16 15 14 14 13 13 14 14 14 15 15 16 17 18 19 20
19 15 13 14 17 21 26 30 34 36 35 34 34 33 31 29 27 26 25 23 22 21 20 19 18 17 17 16 16 15 15 15 15 15 16 16 17 17 18 19 20 21 21
13 12 12 15 19 24 27 30 34 35 34 34 33 33 31 30 28 26 24 23 22 21 20 19 18 17 17 17 17 17 17 17 17 18 18 18 18 19 20 21 21 21 21
9 10 14 18 21 25 29 32 33 33 33 34 32 30 29 27 26 24 23 22 21 20 19 18 17 17 17 17 17 17 18 18 19 19 19 19 20 20 21 21 22 22 22
9 12 17 21 23 27 30 30 31 32 32 33 30 29 28 26 25 24 23 21 20 19 18 17 17 17 17 17 18 18 19 19 20 20 20 20 21 21 21 22 23 23 23
11 16 20 24 26 29 30 30 31 31 30 31 29 28 27 25 24 23 21 20 19 18 17 17 17 17 18 18 19 19 20 20 20 20 20 20 21 21 22 23 23 23 24
16 21 24 26 28 29 30 30 30 30 29 29 28 27 25 23 22 21 19 18 17 17 16 16 17 17 18 18 19 19 19 20 20 20 20 20 21 22 22 23 23 23 24